473P/NEAT (2024)

Japanese version
Home page
Updated on June 4, 2024

---------------------------------------------------------------------

* Profile

Designation 473P/2023 W1
Recovery Date November 29, 2023
Magnitude 17.6 mag
Recoverer Hidetaka Sato (Deep Sky Chile observatory at Rio Hurtado)

* Pictures

* Orbital Elements

Epoch 2024 Mar. 31.0 TT = JDT 2460400.5
T 2024 Feb. 26.24115 TT                                 Rudenko
q   1.4057864            (2000.0)            P               Q
n   0.04380493     Peri.   42.91694     +0.53774767     -0.78150758
a   7.9699216      Node    22.18450     +0.34263126     -0.14026141
e   0.8236135      Incl.   56.90812     +0.77034490     +0.60792486
P  22.5
>From 510 observations 2001 Aug. 18-2024 Mar. 16, mean residual 0".8.

* Finding Charts

* Magnitudes Graph

        m1 = 14.0 + 5 log d +  10.0 log r  [   ,-50]  (             - 2024 Jan.  9)
        m1 = -5   + 5 log d + 110   log r  [-50,  0]  (2024 Jan.  9 - 2024 Feb. 28)
        m1 =  6.8 + 5 log d +  30   log r  [  0,   ]  (2024 Feb. 28 -             )

---------------------------------------------------------------------

The orbital elements are published on M.P.E.C. 2024-F34.
The charts are made with StellaNavigator Ver.10 (AstroArts).
The magnitudes graphs are made with Comet for Windows.

---------------------------------------------------------------------

Copyright(C) Seiichi Yoshida (comet@aerith.net). All rights reserved.